Time,TemperatureF,DewpointF,PressureIn,WindDirection,WindDirectionDegrees,WindSpeedMPH,WindSpeedGustMPH,Humidity,HourlyPrecipIn,Conditions,Clouds,dailyrainin,SoftwareType,DateUTC
2013-02-21 00:00:00,19.0,17.0,-100.00,East,85,3.0,6.0,93,-99.99,,,-99.99,,2013-02-21 06:00:00,
2013-02-21 00:11:00,18.0,16.0,-100.00,East,85,2.0,6.0,94,-99.99,,,-99.99,,2013-02-21 06:11:00,
2013-02-21 00:21:00,18.0,16.0,-100.00,East,85,2.0,6.0,94,-99.99,,,-99.99,,2013-02-21 06:21:00,
2013-02-21 00:31:00,18.0,16.0,-100.00,ESE,105,2.0,4.0,95,-99.99,,,-99.99,,2013-02-21 06:31:00,
2013-02-21 00:41:00,18.0,16.0,-100.00,ESE,105,2.0,4.0,95,-99.99,,,-99.99,,2013-02-21 06:41:00,
2013-02-21 00:51:00,18.0,16.0,-100.00,East,90,4.0,5.0,95,-99.99,,,-99.99,,2013-02-21 06:51:00,
2013-02-21 01:01:00,18.0,16.0,-100.00,East,90,4.0,5.0,95,-99.99,,,-99.99,,2013-02-21 07:01:00,
2013-02-21 01:11:00,18.0,17.0,-100.00,ENE,65,5.0,7.0,95,-99.99,,,-99.99,,2013-02-21 07:11:00,
2013-02-21 01:21:00,18.0,17.0,-100.00,East,85,4.0,6.0,96,-99.99,,,-99.99,,2013-02-21 07:21:00,
2013-02-21 01:32:00,18.0,17.0,-100.00,East,85,4.0,6.0,96,-99.99,,,-99.99,,2013-02-21 07:32:00,
2013-02-21 01:42:00,18.0,17.0,-100.00,ENE,75,4.0,6.0,96,-99.99,,,-99.99,,2013-02-21 07:42:00,
2013-02-21 01:52:00,18.0,17.0,-100.00,ENE,65,4.0,6.0,96,-99.99,,,-99.99,,2013-02-21 07:52:00,
2013-02-21 02:01:00,18.0,17.0,-100.00,ENE,65,4.0,6.0,96,-99.99,,,-99.99,,2013-02-21 08:01:00,
2013-02-21 02:11:00,18.0,17.0,-100.00,ENE,75,4.0,5.0,96,-99.99,,,-99.99,,2013-02-21 08:11:00,
2013-02-21 02:21:00,17.0,17.0,-100.00,NE,55,2.0,4.0,97,-99.99,,,-99.99,,2013-02-21 08:21:00,
2013-02-21 02:32:00,17.0,17.0,-100.00,NE,55,2.0,4.0,97,-99.99,,,-99.99,,2013-02-21 08:32:00,
2013-02-21 02:42:00,17.0,17.0,-100.00,East,85,1.0,4.0,97,-99.99,,,-99.99,,2013-02-21 08:42:00,
2013-02-21 02:52:00,17.0,16.0,-100.00,ENE,75,4.0,6.0,97,-99.99,,,-99.99,,2013-02-21 08:52:00,
2013-02-21 03:01:00,17.0,16.0,-100.00,ENE,75,4.0,6.0,97,-99.99,,,-99.99,,2013-02-21 09:01:00,
2013-02-21 03:11:00,17.0,16.0,-100.00,East,80,3.0,4.0,97,-99.99,,,-99.99,,2013-02-21 09:11:00,
2013-02-21 03:22:00,17.0,16.0,-100.00,East,85,2.0,3.0,97,-99.99,,,-99.99,,2013-02-21 09:22:00,
2013-02-21 03:31:00,17.0,16.0,-100.00,East,85,2.0,3.0,97,-99.99,,,-99.99,,2013-02-21 09:31:00,
2013-02-21 03:41:00,16.0,16.0,-100.00,East,85,2.0,4.0,98,-99.99,,,-99.99,,2013-02-21 09:41:00,
2013-02-21 03:52:00,16.0,16.0,-100.00,ENE,70,2.0,4.0,98,-99.99,,,-99.99,,2013-02-21 09:52:00,
2013-02-21 04:01:00,16.0,16.0,-100.00,ENE,70,2.0,4.0,98,-99.99,,,-99.99,,2013-02-21 10:01:00,
2013-02-21 04:11:00,17.0,16.0,-100.00,NNE,30,1.0,2.0,98,-99.99,,,-99.99,,2013-02-21 10:11:00,
2013-02-21 04:21:00,17.0,17.0,-100.00,NE,45,4.0,6.0,98,-99.99,,,-99.99,,2013-02-21 10:21:00,
2013-02-21 04:31:00,17.0,17.0,-100.00,ENE,65,3.0,6.0,98,-99.99,,,-99.99,,2013-02-21 10:31:00,
2013-02-21 04:41:00,17.0,17.0,-100.00,ENE,65,3.0,6.0,98,-99.99,,,-99.99,,2013-02-21 10:41:00,
2013-02-21 04:51:00,17.0,16.0,-100.00,ENE,70,4.0,6.0,98,-99.99,,,-99.99,,2013-02-21 10:51:00,
2013-02-21 05:01:00,17.0,16.0,-100.00,ENE,70,4.0,6.0,98,-99.99,,,-99.99,,2013-02-21 11:01:00,
2013-02-21 05:11:00,16.0,16.0,-100.00,ENE,75,4.0,6.0,98,-99.99,,,-99.99,,2013-02-21 11:11:00,
2013-02-21 05:21:00,16.0,16.0,-100.00,ENE,70,4.0,6.0,99,-99.99,,,-99.99,,2013-02-21 11:21:00,
2013-02-21 05:31:00,16.0,16.0,-100.00,ENE,70,4.0,6.0,99,-99.99,,,-99.99,,2013-02-21 11:31:00,
2013-02-21 05:41:00,16.0,16.0,-100.00,East,95,4.0,7.0,99,-99.99,,,-99.99,,2013-02-21 11:41:00,
2013-02-21 05:52:00,17.0,17.0,-100.00,ESE,105,3.0,9.0,99,-99.99,,,-99.99,,2013-02-21 11:52:00,
2013-02-21 06:01:00,17.0,17.0,-100.00,ESE,105,3.0,9.0,99,-99.99,,,-99.99,,2013-02-21 12:01:00,
2013-02-21 06:11:00,17.0,17.0,-100.00,East,80,5.0,10.0,99,-99.99,,,-99.99,,2013-02-21 12:11:00,
2013-02-21 06:21:00,18.0,18.0,-100.00,ENE,60,4.0,6.0,99,-99.99,,,-99.99,,2013-02-21 12:21:00,
2013-02-21 06:32:00,18.0,18.0,-100.00,ENE,60,4.0,6.0,99,-99.99,,,-99.99,,2013-02-21 12:32:00,
2013-02-21 06:42:00,18.0,17.0,-100.00,SSE,150,1.0,3.0,99,-99.99,,,-99.99,,2013-02-21 12:42:00,
2013-02-21 06:53:00,17.0,17.0,-100.00,East,95,2.0,4.0,99,-99.99,,,-99.99,,2013-02-21 12:53:00,
2013-02-21 07:02:00,17.0,17.0,-100.00,East,95,2.0,4.0,99,-99.99,,,-99.99,,2013-02-21 13:02:00,
2013-02-21 07:12:00,17.0,17.0,-100.00,ESE,115,3.0,7.0,99,-99.99,,,-99.99,,2013-02-21 13:12:00,
2013-02-21 07:22:00,17.0,17.0,-100.00,East,80,5.0,9.0,99,-99.99,,,-99.99,,2013-02-21 13:22:00,
2013-02-21 07:32:00,17.0,17.0,-100.00,East,80,5.0,9.0,99,-99.99,,,-99.99,,2013-02-21 13:32:00,
2013-02-21 07:41:00,17.0,17.0,-100.00,East,80,5.0,9.0,99,-99.99,,,-99.99,,2013-02-21 13:41:00,
2013-02-21 07:52:00,19.0,19.0,-100.00,NW,320,1.0,7.0,99,-99.99,,,-99.99,,2013-02-21 13:52:00,
2013-02-21 08:02:00,19.0,19.0,-100.00,NW,320,1.0,7.0,99,-99.99,,,-99.99,,2013-02-21 14:02:00,
2013-02-21 08:11:00,20.0,19.0,-100.00,SE,145,1.0,4.0,98,-99.99,,,-99.99,,2013-02-21 14:11:00,
2013-02-21 08:21:00,21.0,21.0,-100.00,East,90,2.0,4.0,98,-99.99,,,-99.99,,2013-02-21 14:21:00,
2013-02-21 08:32:00,21.0,21.0,-100.00,East,90,2.0,4.0,98,-99.99,,,-99.99,,2013-02-21 14:32:00,
2013-02-21 08:42:00,22.0,22.0,-100.00,South,190,0.0,4.0,97,-99.99,,,-99.99,,2013-02-21 14:42:00,
2013-02-21 08:52:00,23.0,22.0,-100.00,SE,145,2.0,5.0,96,-99.99,,,-99.99,,2013-02-21 14:52:00,
2013-02-21 09:01:00,23.0,22.0,-100.00,SE,145,2.0,5.0,96,-99.99,,,-99.99,,2013-02-21 15:01:00,
2013-02-21 09:12:00,24.0,23.0,-100.00,SE,130,4.0,7.0,95,-99.99,,,-99.99,,2013-02-21 15:12:00,
2013-02-21 09:21:00,24.0,23.0,-100.00,SSE,155,8.0,11.0,94,-99.99,,,-99.99,,2013-02-21 15:21:00,
2013-02-21 09:32:00,24.0,23.0,-100.00,SSE,155,8.0,11.0,94,-99.99,,,-99.99,,2013-02-21 15:32:00,
2013-02-21 09:42:00,25.0,23.0,-100.00,SE,145,4.0,15.0,93,-99.99,,,-99.99,,2013-02-21 15:42:00,
2013-02-21 09:52:00,26.0,23.0,-100.00,South,170,8.0,14.0,91,-99.99,,,-99.99,,2013-02-21 15:52:00,
2013-02-21 10:01:00,26.0,23.0,-100.00,South,170,8.0,14.0,91,-99.99,,,-99.99,,2013-02-21 16:01:00,
2013-02-21 10:12:00,26.0,23.0,-100.00,SSE,165,12.0,17.0,90,-99.99,,,-99.99,,2013-02-21 16:12:00,
2013-02-21 10:22:00,27.0,24.0,-100.00,SSE,150,4.0,14.0,89,-99.99,,,-99.99,,2013-02-21 16:22:00,
2013-02-21 10:32:00,27.0,24.0,-100.00,SSE,150,4.0,14.0,89,-99.99,,,-99.99,,2013-02-21 16:32:00,
2013-02-21 10:42:00,27.0,24.0,-100.00,SSE,160,5.0,13.0,88,-99.99,,,-99.99,,2013-02-21 16:42:00,
2013-02-21 10:52:00,27.0,24.0,-100.00,SE,135,9.0,19.0,87,-99.99,,,-99.99,,2013-02-21 16:52:00,
2013-02-21 11:01:00,27.0,24.0,-100.00,SE,135,9.0,19.0,87,-99.99,,,-99.99,,2013-02-21 17:01:00,
2013-02-21 11:11:00,27.0,24.0,-100.00,ESE,120,7.0,16.0,86,-99.99,,,-99.99,,2013-02-21 17:11:00,
2013-02-21 11:21:00,28.0,24.0,-100.00,SE,145,7.0,15.0,86,-99.99,,,-99.99,,2013-02-21 17:21:00,
2013-02-21 11:32:00,28.0,24.0,-100.00,SE,145,7.0,15.0,86,-99.99,,,-99.99,,2013-02-21 17:32:00,
2013-02-21 11:42:00,28.0,24.0,-100.00,SE,140,7.0,14.0,85,-99.99,,,-99.99,,2013-02-21 17:42:00,
2013-02-21 11:52:00,29.0,25.0,-100.00,SE,130,4.0,19.0,85,-99.99,,,-99.99,,2013-02-21 17:52:00,
2013-02-21 12:02:00,29.0,25.0,-100.00,SE,130,4.0,19.0,85,-99.99,,,-99.99,,2013-02-21 18:02:00,
2013-02-21 12:11:00,29.0,25.0,-100.00,SE,125,6.0,24.0,85,-99.99,,,-99.99,,2013-02-21 18:11:00,
2013-02-21 12:22:00,29.0,25.0,-100.00,SE,125,6.0,18.0,85,-99.99,,,-99.99,,2013-02-21 18:22:00,
2013-02-21 12:32:00,29.0,25.0,-100.00,SE,125,6.0,18.0,85,-99.99,,,-99.99,,2013-02-21 18:32:00,
2013-02-21 12:42:00,29.0,25.0,-100.00,SE,125,6.0,18.0,85,-99.99,,,-99.99,,2013-02-21 18:42:00,
2013-02-21 12:52:00,29.0,25.0,-100.00,SSE,160,9.0,19.0,86,-99.99,,,-99.99,,2013-02-21 18:52:00,
2013-02-21 13:01:00,29.0,25.0,-100.00,SSE,160,9.0,19.0,86,-99.99,,,-99.99,,2013-02-21 19:01:00,
2013-02-21 13:12:00,29.0,26.0,-100.00,East,100,9.0,16.0,86,-99.99,,,-99.99,,2013-02-21 19:12:00,
2013-02-21 13:21:00,30.0,26.0,-100.00,ESE,105,5.0,19.0,85,-99.99,,,-99.99,,2013-02-21 19:21:00,
2013-02-21 13:31:00,30.0,26.0,-100.00,ESE,105,5.0,19.0,85,-99.99,,,-99.99,,2013-02-21 19:31:00,
2013-02-21 13:42:00,30.0,26.0,-100.00,SE,140,6.0,19.0,85,-99.99,,,-99.99,,2013-02-21 19:42:00,
2013-02-21 13:52:00,30.0,26.0,-100.00,ESE,115,4.0,12.0,85,-99.99,,,-99.99,,2013-02-21 19:52:00,
2013-02-21 14:01:00,30.0,26.0,-100.00,ESE,115,4.0,12.0,85,-99.99,,,-99.99,,2013-02-21 20:01:00,
2013-02-21 14:11:00,30.0,26.0,-100.00,SSE,160,6.0,17.0,85,-99.99,,,-99.99,,2013-02-21 20:11:00,
2013-02-21 14:21:00,30.0,26.0,-100.00,SSE,155,11.0,18.0,85,-99.99,,,-99.99,,2013-02-21 20:21:00,
2013-02-21 14:32:00,30.0,26.0,-100.00,SSE,155,11.0,18.0,85,-99.99,,,-99.99,,2013-02-21 20:32:00,
2013-02-21 14:41:00,31.0,26.0,-100.00,ESE,115,7.0,14.0,84,-99.99,,,-99.99,,2013-02-21 20:41:00,
2013-02-21 14:53:00,31.0,26.0,-100.00,SSE,160,6.0,14.0,84,-99.99,,,-99.99,,2013-02-21 20:53:00,
2013-02-21 15:02:00,31.0,26.0,-100.00,SSE,160,6.0,14.0,84,-99.99,,,-99.99,,2013-02-21 21:02:00,
2013-02-21 15:11:00,31.0,26.0,-100.00,SSE,155,4.0,11.0,84,-99.99,,,-99.99,,2013-02-21 21:11:00,
2013-02-21 15:21:00,31.0,26.0,-100.00,SSE,165,6.0,15.0,84,-99.99,,,-99.99,,2013-02-21 21:21:00,
2013-02-21 15:31:00,31.0,26.0,-100.00,SSE,165,6.0,15.0,84,-99.99,,,-99.99,,2013-02-21 21:31:00,
2013-02-21 15:42:00,30.0,26.0,-100.00,SE,125,9.0,21.0,84,-99.99,,,-99.99,,2013-02-21 21:42:00,
2013-02-21 15:52:00,31.0,26.0,-100.00,SE,130,8.0,16.0,84,-99.99,,,-99.99,,2013-02-21 21:52:00,
2013-02-21 16:01:00,31.0,26.0,-100.00,SE,130,8.0,16.0,84,-99.99,,,-99.99,,2013-02-21 22:01:00,
2013-02-21 16:11:00,31.0,26.0,-100.00,SE,130,8.0,16.0,84,-99.99,,,-99.99,,2013-02-21 22:11:00,
2013-02-21 17:11:00,30.0,26.0,-100.00,SSE,155,11.0,23.0,84,-99.99,,,-99.99,,2013-02-21 23:11:00,
2013-02-21 17:21:00,30.0,26.0,-100.00,SSE,165,14.0,23.0,85,-99.99,,,-99.99,,2013-02-21 23:21:00,
2013-02-21 17:32:00,30.0,26.0,-100.00,SSE,165,14.0,23.0,85,-99.99,,,-99.99,,2013-02-21 23:32:00,
2013-02-21 17:41:00,29.0,26.0,-100.00,ESE,120,11.0,22.0,87,-99.99,,,-99.99,,2013-02-21 23:41:00,
2013-02-21 17:52:00,29.0,27.0,-100.00,ESE,120,7.0,18.0,91,-99.99,,,-99.99,,2013-02-21 23:52:00,
2013-02-21 18:01:00,29.0,27.0,-100.00,ESE,120,7.0,18.0,91,-99.99,,,-99.99,,2013-02-22 00:01:00,
2013-02-21 18:11:00,29.0,27.0,-100.00,ESE,110,9.0,16.0,92,-99.99,,,-99.99,,2013-02-22 00:11:00,
2013-02-21 18:21:00,28.0,27.0,-100.00,East,80,5.0,19.0,94,-99.99,,,-99.99,,2013-02-22 00:21:00,
2013-02-21 18:32:00,28.0,27.0,-100.00,East,80,5.0,19.0,94,-99.99,,,-99.99,,2013-02-22 00:32:00,
2013-02-21 18:42:00,28.0,27.0,-100.00,East,90,9.0,20.0,95,-99.99,,,-99.99,,2013-02-22 00:42:00,
2013-02-21 18:52:00,27.0,26.0,-100.00,ESE,120,8.0,26.0,96,-99.99,,,-99.99,,2013-02-22 00:52:00,
2013-02-21 19:01:00,27.0,26.0,-100.00,ESE,120,8.0,26.0,96,-99.99,,,-99.99,,2013-02-22 01:01:00,
2013-02-21 19:11:00,27.0,26.0,-100.00,ESE,115,10.0,24.0,98,-99.99,,,-99.99,,2013-02-22 01:11:00,
2013-02-21 19:21:00,26.0,26.0,-100.00,ESE,110,14.0,30.0,99,-99.99,,,-99.99,,2013-02-22 01:21:00,
2013-02-21 19:32:00,26.0,26.0,-100.00,ESE,110,14.0,30.0,99,-99.99,,,-99.99,,2013-02-22 01:32:00,
2013-02-21 19:42:00,26.0,26.0,-100.00,ENE,75,7.0,23.0,99,-99.99,,,-99.99,,2013-02-22 01:42:00,
2013-02-21 19:52:00,26.0,26.0,-100.00,ESE,115,12.0,21.0,99,-99.99,,,-99.99,,2013-02-22 01:52:00,
2013-02-21 20:02:00,26.0,26.0,-100.00,ESE,115,12.0,21.0,99,-99.99,,,-99.99,,2013-02-22 02:02:00,
2013-02-21 20:11:00,26.0,26.0,-100.00,ESE,105,11.0,28.0,99,-99.99,,,-99.99,,2013-02-22 02:11:00,
2013-02-21 20:21:00,27.0,26.0,-100.00,East,100,6.0,19.0,99,-99.99,,,-99.99,,2013-02-22 02:21:00,
2013-02-21 20:32:00,27.0,26.0,-100.00,East,100,6.0,19.0,99,-99.99,,,-99.99,,2013-02-22 02:32:00,
2013-02-21 20:42:00,27.0,26.0,-100.00,SE,125,10.0,26.0,99,-99.99,,,-99.99,,2013-02-22 02:42:00,
2013-02-21 20:52:00,27.0,26.0,-100.00,ESE,120,11.0,25.0,99,-99.99,,,-99.99,,2013-02-22 02:52:00,
2013-02-21 21:01:00,27.0,26.0,-100.00,ESE,120,11.0,25.0,99,-99.99,,,-99.99,,2013-02-22 03:01:00,
2013-02-21 21:11:00,27.0,27.0,-100.00,SE,140,11.0,23.0,99,-99.99,,,-99.99,,2013-02-22 03:11:00,
2013-02-21 21:21:00,27.0,26.0,-100.00,SSE,160,11.0,23.0,99,-99.99,,,-99.99,,2013-02-22 03:21:00,
2013-02-21 21:32:00,27.0,26.0,-100.00,SSE,160,11.0,23.0,99,-99.99,,,-99.99,,2013-02-22 03:32:00,
2013-02-21 21:42:00,27.0,27.0,-100.00,SE,125,6.0,13.0,99,-99.99,,,-99.99,,2013-02-22 03:42:00,
2013-02-21 21:52:00,27.0,27.0,-100.00,SE,145,8.0,19.0,99,-99.99,,,-99.99,,2013-02-22 03:52:00,
2013-02-21 22:02:00,27.0,27.0,-100.00,SE,145,8.0,19.0,99,-99.99,,,-99.99,,2013-02-22 04:02:00,
2013-02-21 22:11:00,27.0,27.0,-100.00,SE,140,6.0,15.0,99,-99.99,,,-99.99,,2013-02-22 04:11:00,
2013-02-21 22:21:00,27.0,27.0,-100.00,ESE,120,6.0,15.0,99,-99.99,,,-99.99,,2013-02-22 04:21:00,
2013-02-21 22:32:00,27.0,27.0,-100.00,ESE,120,6.0,15.0,99,-99.99,,,-99.99,,2013-02-22 04:32:00,
2013-02-21 22:42:00,27.0,27.0,-100.00,SE,140,11.0,20.0,99,-99.99,,,-99.99,,2013-02-22 04:42:00,
2013-02-21 22:52:00,28.0,27.0,-100.00,SSE,155,6.0,14.0,99,-99.99,,,-99.99,,2013-02-22 04:52:00,
2013-02-21 23:02:00,28.0,27.0,-100.00,SSE,155,6.0,14.0,99,-99.99,,,-99.99,,2013-02-22 05:02:00,
2013-02-21 23:12:00,28.0,28.0,-100.00,SE,130,9.0,22.0,99,-99.99,,,-99.99,,2013-02-22 05:12:00,
2013-02-21 23:22:00,28.0,28.0,-100.00,South,170,9.0,18.0,99,-99.99,,,-99.99,,2013-02-22 05:22:00,
2013-02-21 23:32:00,28.0,28.0,-100.00,South,170,9.0,18.0,99,-99.99,,,-99.99,,2013-02-22 05:32:00,
2013-02-21 23:42:00,28.0,28.0,-100.00,SSE,160,14.0,26.0,99,-99.99,,,-99.99,,2013-02-22 05:42:00,
2013-02-21 23:52:00,28.0,28.0,-100.00,SSE,165,9.0,17.0,99,-99.99,,,-99.99,,2013-02-22 05:52:00,